Weather History for Jacksonville Craig, FL

Change the Weather History Date:

Wednesday, May 28, 2014

  Actual Average Record
Temperature  
Mean Temperature 78 °F -  
Max Temperature 89 °F 85 °F 97 °F (2000)
Min Temperature 68 °F 66 °F 57 °F (2008)
Cooling Degree Days 12    
Growing Degree Days 28 (Base 50)    
Moisture  
Dew Point 67 °F    
Average Humidity 73    
Maximum Humidity 90    
Minimum Humidity 48    
Precipitation  
Precipitation 0.00 in - - ()
Sea Level Pressure  
Sea Level Pressure 30.06 in    
Wind  
Wind Speed 4 mph (South)    
Max Wind Speed 13 mph    
Max Gust Speed -    
Visibility 10 miles    
Events      
Averages and records for this station are not official NWS values.
T = Trace of Precipitation, MM = Missing Value Source: NWS Daily Summary

Daily Weather History Graph

Daily Weather History Graph

Search for Another Location

Airport:

Trip Planner

Search our weather history database for the weather conditions in past years. The results will help you decide how hot, cold, wet, or windy it might be!

Date:

Astronomy

May. 28, 2014 Rise Set
Actual Time 6:25 AM EDT 8:21 PM EDT
Civil Twilight 5:58 AM EDT 8:48 PM EDT
Nautical Twilight 5:26 AM EDT 9:20 PM EDT
Astronomical Twilight 4:51 AM EDT 9:55 PM EDT
Moon 6:26 AM EDT (5/28) 8:22 PM EDT (5/28)
Length of Visible Light 14h 49m
Length of Day
13h 55m
Waning Crescent, 0% of the Moon is Illuminated
May 28
Waning Crescent
May 28
New
Jun 5
First Quarter
Jun 13
Full
Jun 19
Last Quarter

Hourly Weather History & Observations

Time (EDT) Temp. Heat Index Dew Point Humidity Pressure Visibility Wind Dir Wind Speed Gust Speed Precip Events Conditions
12:53 AM 72.0 °F - 66.9 °F 84% 30.10 in 10.0 mi South 3.5 mph - N/A   Clear
1:53 AM 71.1 °F - 66.9 °F 87% 30.09 in 10.0 mi Calm Calm - N/A   Clear
2:53 AM 71.1 °F - 66.9 °F 87% 30.08 in 10.0 mi South 5.8 mph - N/A   Clear
3:53 AM 71.1 °F - 66.9 °F 87% 30.06 in 10.0 mi South 5.8 mph - N/A   Clear
4:53 AM 70.0 °F - 66.0 °F 87% 30.06 in 10.0 mi South 4.6 mph - N/A   Clear
5:53 AM 68.0 °F - 64.9 °F 90% 30.06 in 10.0 mi Calm Calm - N/A   Clear
6:53 AM 69.1 °F - 66.0 °F 90% 30.07 in 10.0 mi Calm Calm - N/A   Clear
7:53 AM 73.0 °F - 68.0 °F 84% 30.08 in 10.0 mi South 3.5 mph - N/A   Clear
8:53 AM 78.1 °F - 70.0 °F 76% 30.09 in 10.0 mi SSW 6.9 mph - N/A   Clear
9:53 AM 80.1 °F 82.9 °F 69.1 °F 69% 30.09 in 10.0 mi SW 4.6 mph - N/A   Clear
10:53 AM 82.9 °F 86.5 °F 69.1 °F 63% 30.09 in 10.0 mi South 4.6 mph - N/A   Clear
11:53 AM 84.0 °F 86.5 °F 66.9 °F 56% 30.09 in 10.0 mi Calm Calm - N/A   Scattered Clouds
12:53 PM 87.1 °F 88.9 °F 64.9 °F 48% 30.07 in 10.0 mi SSW 5.8 mph - N/A   Partly Cloudy
3:53 PM 87.1 °F 89.2 °F 66.0 °F 49% 30.03 in 10.0 mi East 12.7 mph - N/A   Clear
4:53 PM 86.0 °F 87.3 °F 64.0 °F 48% 30.02 in 10.0 mi ESE 11.5 mph - N/A   Clear
6:53 PM 81.0 °F 82.5 °F 64.0 °F 56% 30.02 in 10.0 mi WNW 5.8 mph - N/A   Scattered Clouds
7:53 PM 79.0 °F - 66.0 °F 64% 30.03 in 10.0 mi WNW 4.6 mph - N/A   Clear
8:53 PM 77.0 °F - 68.0 °F 74% 30.04 in 10.0 mi Calm Calm - N/A   Clear
9:53 PM 77.0 °F - 66.9 °F 71% 30.05 in 10.0 mi South 3.5 mph - N/A   Scattered Clouds
10:53 PM 75.0 °F - 68.0 °F 79% 30.06 in 10.0 mi SSE 3.5 mph - N/A   Clear
11:53 PM 75.0 °F - 69.1 °F 82% 30.05 in 10.0 mi SSE 4.6 mph - N/A   Clear